TimeEST,TemperatureF,Dew PointF,Humidity,Sea Level PressureIn,VisibilityMPH,Wind Direction,Wind SpeedMPH,Gust SpeedMPH,PrecipitationIn,Events,Conditions,WindDirDegrees,DateUTC
12:27 AM,17.6,12.2,79,30.00,3.0,WNW,17.3,23.0,0.00,Snow,Light Snow,290,2013-02-20 05:27:00
12:35 AM,17.6,12.2,79,30.01,4.0,WNW,17.3,24.2,0.00,Snow,Light Snow,300,2013-02-20 05:35:00
12:53 AM,17.1,12.0,81,30.06,3.0,West,9.2,-,0.00,Snow,Light Snow,270,2013-02-20 05:53:00
1:28 AM,17.6,12.2,79,30.02,2.0,West,11.5,-,N/A,Snow,Light Snow,270,2013-02-20 06:28:00
1:40 AM,17.6,12.2,79,30.03,1.8,West,10.4,-,0.00,Snow,Light Snow,280,2013-02-20 06:40:00
1:53 AM,17.1,12.0,81,30.08,1.8,West,10.4,-,0.00,Snow,Light Snow,270,2013-02-20 06:53:00
2:00 AM,17.6,12.2,79,30.03,2.0,West,10.4,-,0.00,Snow,Light Snow,280,2013-02-20 07:00:00
2:39 AM,17.6,12.2,79,30.04,4.0,West,10.4,-,0.00,Snow,Light Snow,270,2013-02-20 07:39:00
2:53 AM,17.1,12.0,81,30.09,2.5,West,10.4,-,0.00,Snow,Light Snow,270,2013-02-20 07:53:00
3:08 AM,17.6,12.2,79,30.04,1.2,West,11.5,-,0.00,Snow,Light Snow,280,2013-02-20 08:08:00
3:31 AM,17.6,12.2,79,30.04,2.5,West,12.7,-,0.00,Snow,Light Snow,280,2013-02-20 08:31:00
3:45 AM,17.6,12.2,79,30.05,2.5,WNW,12.7,-,0.00,Snow,Light Snow,290,2013-02-20 08:45:00
3:53 AM,17.1,12.0,81,30.11,2.5,WNW,13.8,20.7,0.00,Snow,Light Snow,290,2013-02-20 08:53:00
4:05 AM,17.6,12.2,79,30.06,1.8,West,12.7,-,0.00,Snow,Light Snow,280,2013-02-20 09:05:00
4:53 AM,16.0,12.0,84,30.12,1.0,WNW,11.5,-,0.00,Snow,Light Snow,290,2013-02-20 09:53:00
5:10 AM,15.8,12.2,86,30.08,3.0,West,10.4,18.4,0.00,Snow,Light Snow,280,2013-02-20 10:10:00
5:20 AM,17.6,12.2,79,30.09,2.5,WNW,11.5,-,0.00,Snow,Light Snow,290,2013-02-20 10:20:00
5:27 AM,17.6,12.2,79,30.09,1.8,WNW,12.7,-,0.00,Snow,Light Snow,290,2013-02-20 10:27:00
5:36 AM,17.6,12.2,79,30.09,2.0,WNW,8.1,-,0.00,Snow,Light Snow,290,2013-02-20 10:36:00
5:53 AM,17.1,12.9,84,30.14,2.5,WNW,10.4,-,0.00,Snow,Light Snow,290,2013-02-20 10:53:00
6:01 AM,17.6,12.2,79,30.10,3.0,West,9.2,-,0.00,Snow,Light Snow,280,2013-02-20 11:01:00
6:53 AM,17.1,12.9,84,30.16,3.0,West,11.5,-,0.00,Snow,Light Snow,280,2013-02-20 11:53:00
7:53 AM,17.6,14.0,86,30.13,2.5,West,9.2,-,N/A,Snow,Light Snow,280,2013-02-20 12:53:00
8:29 AM,17.6,14.0,86,30.13,3.0,WNW,12.7,-,0.00,Snow,Light Snow,300,2013-02-20 13:29:00
8:53 AM,19.0,14.0,81,30.19,2.5,WNW,11.5,-,0.00,Snow,Light Snow,290,2013-02-20 13:53:00
8:58 AM,19.4,14.0,80,30.14,3.0,WNW,13.8,-,0.00,Snow,Light Snow,300,2013-02-20 13:58:00
9:14 AM,19.4,12.2,74,30.14,2.5,WNW,15.0,23.0,0.00,Snow,Light Snow,300,2013-02-20 14:14:00
9:53 AM,19.0,14.0,81,30.19,2.5,NW,12.7,20.7,0.00,Snow,Light Snow,320,2013-02-20 14:53:00
10:53 AM,19.0,14.0,81,30.22,0.8,North,8.1,-,0.00,Snow,Light Snow,360,2013-02-20 15:53:00
11:35 AM,19.4,14.0,80,30.18,1.0,North,11.5,-,0.00,Snow,Light Snow,350,2013-02-20 16:35:00
11:53 AM,19.4,14.0,80,30.18,1.0,NNW,9.2,-,N/A,Snow,Light Snow,330,2013-02-20 16:53:00
12:53 PM,19.9,14.0,78,30.24,1.5,NW,12.7,-,0.00,Snow,Light Snow,320,2013-02-20 17:53:00
1:53 PM,21.0,15.1,78,30.24,1.5,NNW,10.4,-,0.00,Snow,Light Snow,330,2013-02-20 18:53:00
2:53 PM,21.0,16.0,81,30.25,1.5,NW,13.8,-,0.00,Snow,Light Snow,310,2013-02-20 19:53:00
3:01 PM,21.2,15.8,80,30.20,2.0,NW,13.8,-,0.00,Snow,Light Snow,310,2013-02-20 20:01:00
3:10 PM,21.2,15.8,80,30.21,2.0,NW,17.3,21.9,0.00,Snow,Light Snow,310,2013-02-20 20:10:00
3:53 PM,21.9,15.1,75,30.30,3.0,NW,12.7,23.0,0.00,Snow,Light Snow,320,2013-02-20 20:53:00
4:53 PM,21.9,15.1,75,30.29,2.0,NW,12.7,-,0.00,Snow,Light Snow,320,2013-02-20 21:53:00
5:13 PM,21.2,15.8,80,30.24,4.0,NNW,16.1,-,0.00,Snow,Light Snow,330,2013-02-20 22:13:00
5:53 PM,21.9,16.0,78,30.29,4.0,NW,15.0,-,0.00,Snow,Light Snow,320,2013-02-20 22:53:00
6:53 PM,21.9,16.0,78,30.30,3.0,NNW,17.3,23.0,0.00,Snow,Light Snow,340,2013-02-20 23:53:00
7:28 PM,21.2,14.0,74,30.26,10.0,NNW,16.1,-,0.00,,Overcast,330,2013-02-21 00:28:00
7:53 PM,21.0,14.0,74,30.32,10.0,NW,13.8,26.5,0.00,,Overcast,320,2013-02-21 00:53:00
8:53 PM,21.9,12.9,68,30.32,10.0,NNW,16.1,23.0,N/A,,Overcast,340,2013-02-21 01:53:00
9:53 PM,21.0,12.9,71,30.32,10.0,NNW,13.8,-,N/A,,Overcast,340,2013-02-21 02:53:00
10:53 PM,21.0,14.0,74,30.32,10.0,NNW,13.8,-,N/A,,Overcast,340,2013-02-21 03:53:00
11:53 PM,21.0,14.0,74,30.32,10.0,North,13.8,-,N/A,,Overcast,350,2013-02-21 04:53:00